Вернуться в каталог

IRS P6

АктивенНаукаSSO
NORAD 28051·PAYLOAD·🇮🇳 India

Запущен Oct 17, 2003 с Satish Dhawan Space Centre

Loading…

Ближайшие Пролёты (ближайшие 24 часа)

TLE

СвежийSource: Space-Track

Эпоха: Sep 14, 2026, 15:12 UTC

1 28051U 03046A   26257.63348605  .00000105  00000-0  48738-4 0  9996
2 28051  98.1847 289.7427 0065387  73.9529  85.0101 14.36185632193364

Отслеживайте IRS P6 в реальном времени с AllMySat

Download on the App Store